Tampa, FL

12:04 PM EST on December 10, 2016 (GMT -0500)
MacDill Air Force Base

Weather History for KMCF - November, 2012

Change the Weather History Date:

Sunday, November 18, 2012

  Actual Average Record
Temperature  
Mean Temperature 66 °F -  
Max Temperature 74 °F 76 °F 86 °F (1998)
Min Temperature 54 °F 58 °F 43 °F (2014)
Growing Degree Days 16 (Base 50)    
Moisture  
Dew Point 60 °F    
Average Humidity 86    
Maximum Humidity 96    
Minimum Humidity 61    
Precipitation  
Precipitation 0.00 in - - ()
Sea Level Pressure  
Sea Level Pressure 30.17 in    
Wind  
Wind Speed 11 mph (ENE)    
Max Wind Speed 16 mph    
Max Gust Speed 18 mph    
Visibility 10 miles    
Events      
Averages and records for this station are not official NWS values.
T = Trace of Precipitation, MM = Missing Value Source: NWS Daily Summary

Daily Weather History Graph

Daily Weather History Graph

Search for Another Location

Airport or City:

Trip Planner

Search our weather history database for the weather conditions in past years. The results will help you decide how hot, cold, wet, or windy it might be!

Date:

Astronomy

Nov. 18, 2012 Rise Set
Actual Time 6:54 AM EST 5:36 PM EST
Civil Twilight 6:29 AM EST 6:01 PM EST
Nautical Twilight 6:00 AM EST 6:29 PM EST
Astronomical Twilight 5:32 AM EST 6:57 PM EST
Moon 11:25 AM EST (11/18) 10:47 PM EST (11/18)
Length of Visible Light 11h 32m
Length of Day
10h 42m
Waxing Crescent, 30% of the Moon is Illuminated
Nov 18
Waxing Crescent
Nov 20
First Quarter
Nov 28
Full
Dec 6
Last Quarter
Dec 13
New

Hourly Weather History & Observations

Time (EST) Temp. Dew Point Humidity Pressure Visibility Wind Dir Wind Speed Gust Speed Precip Events Conditions
12:55 AM 61.9 °F 60.4 °F 95% 30.15 in 10.0 mi ENE 10.4 mph - N/A   Scattered Clouds
1:02 AM 62.6 °F 60.8 °F 94% 30.15 in 10.0 mi ENE 10.4 mph - N/A   Mostly Cloudy
1:55 AM 62.4 °F 61.0 °F 95% 30.14 in 10.0 mi ENE 11.5 mph - N/A   Overcast
2:55 AM 62.2 °F 60.8 °F 95% 30.13 in 10.0 mi ENE 15.0 mph - N/A   Overcast
3:55 AM 62.1 °F 60.3 °F 94% 30.14 in 10.0 mi ENE 9.2 mph - N/A   Overcast
4:23 AM 62.6 °F 60.8 °F 94% 30.14 in 10.0 mi ENE 11.5 mph - N/A   Overcast
4:55 AM 61.7 °F 60.3 °F 95% 30.14 in 10.0 mi ENE 10.4 mph - N/A   Overcast
5:00 AM 62.6 °F 60.8 °F 94% 30.14 in 10.0 mi ENE 13.8 mph - N/A   Overcast
5:55 AM 61.3 °F 60.3 °F 96% 30.15 in 10.0 mi ENE 12.7 mph - N/A   Overcast
6:55 AM 61.2 °F 60.1 °F 96% 30.16 in 10.0 mi ENE 11.5 mph - N/A   Overcast
7:55 AM 61.2 °F 60.1 °F 96% 30.17 in 10.0 mi ENE 16.1 mph - N/A   Overcast
8:55 AM 62.1 °F 60.6 °F 95% 30.18 in 10.0 mi ENE 15.0 mph - N/A   Overcast
9:08 AM 62.6 °F 60.8 °F 94% 30.19 in 10.0 mi ENE 15.0 mph - N/A   Overcast
9:32 AM 62.6 °F 60.8 °F 94% 30.19 in 10.0 mi ENE 15.0 mph - N/A   Overcast
9:55 AM 63.5 °F 60.3 °F 89% 30.20 in 10.0 mi ENE 16.1 mph - N/A   Overcast
10:55 AM 65.7 °F 60.3 °F 83% 30.21 in 10.0 mi NE 13.8 mph - N/A   Overcast
11:28 AM 68.0 °F 60.8 °F 78% 30.20 in 10.0 mi NE 13.8 mph - N/A   Overcast
11:55 AM 68.9 °F 61.0 °F 76% 30.18 in 10.0 mi East 13.8 mph 18.4 mph N/A   Mostly Cloudy
12:03 PM 69.8 °F 60.8 °F 73% 30.18 in 10.0 mi ENE 9.2 mph - N/A   Scattered Clouds
12:55 PM 71.4 °F 61.5 °F 71% 30.16 in 10.0 mi NE 9.2 mph - N/A   Clear
1:55 PM 74.7 °F 61.2 °F 63% 30.14 in 10.0 mi NE 9.2 mph - N/A   Clear
2:55 PM 74.5 °F 60.3 °F 61% 30.13 in 10.0 mi ENE 9.2 mph - N/A   Clear
3:55 PM 73.6 °F 59.7 °F 62% 30.13 in 10.0 mi ENE 10.4 mph - N/A   Clear
4:55 PM 72.5 °F 59.9 °F 64% 30.14 in 10.0 mi ENE 9.2 mph - N/A   Clear
5:55 PM 67.1 °F 59.2 °F 76% 30.15 in 10.0 mi NE 6.9 mph - N/A   Clear
6:55 PM 64.2 °F 58.8 °F 83% 30.18 in 10.0 mi NE 6.9 mph - N/A   Clear
7:55 PM 62.8 °F 57.9 °F 84% 30.19 in 10.0 mi NE 6.9 mph - N/A   Clear
8:55 PM 61.3 °F 57.9 °F 89% 30.20 in 10.0 mi ENE 8.1 mph - N/A   Clear
9:55 PM 58.3 °F 55.4 °F 90% 30.20 in 10.0 mi ENE 5.8 mph - N/A   Clear
10:55 PM 57.2 °F 54.9 °F 92% 30.19 in 10.0 mi ENE 8.1 mph - N/A   Clear
11:55 PM 54.9 °F 53.4 °F 95% 30.18 in 10.0 mi ENE 5.8 mph - N/A   Clear